2023/09/21 00:00:00,48.2,21.6
2023/09/21 00:10:00,---,21.7
2023/09/21 00:20:00,---,21.6
2023/09/21 00:30:00,56.1,22.0
2023/09/21 00:40:00,56.8,21.6
2023/09/21 00:50:00,56.9,21.9
2023/09/21 01:00:00,56.7,22.1
2023/09/21 01:10:00,56.6,22.3
2023/09/21 01:20:00,---,22.4
2023/09/21 01:30:00,56.3,21.9
2023/09/21 01:40:00,56.5,21.9
2023/09/21 01:50:00,---,21.9
2023/09/21 02:00:00,55.0,22.4
2023/09/21 02:10:00,43.5,22.6
2023/09/21 02:20:00,36.8,22.8
2023/09/21 02:30:00,37.2,22.8
2023/09/21 02:40:00,33.6,23.1
2023/09/21 02:50:00,23.5,23.4
2023/09/21 03:00:00,27.3,23.3
2023/09/21 03:10:00,23.1,23.3
2023/09/21 03:20:00, 8.1,23.4
2023/09/21 03:30:00,---,23.3
2023/09/21 03:40:00, 0.0,23.4
2023/09/21 03:50:00,22.6,23.3
2023/09/21 04:00:00,23.7,23.1
2023/09/21 04:10:00,---,23.5
2023/09/21 04:20:00,19.8,23.3
2023/09/21 04:30:00,15.7,23.2
2023/09/21 04:40:00, 8.6,23.5
2023/09/21 04:50:00,16.3,23.0
2023/09/21 05:00:00,22.7,23.5
2023/09/21 05:10:00,12.7,23.6
2023/09/21 05:20:00, 8.2,23.9
2023/09/21 05:30:00, 8.9,23.8
2023/09/21 05:40:00,25.5,23.7
2023/09/21 05:50:00, 2.0,23.7
2023/09/21 06:00:00,---,24.0
2023/09/21 06:10:00, 8.1,24.0
2023/09/21 06:20:00, 7.3,23.8
2023/09/21 06:30:00, 6.9,24.0
2023/09/21 06:40:00, 7.6,24.0
2023/09/21 06:50:00,---,24.0
2023/09/21 07:00:00,---,23.7
2023/09/21 07:10:00,13.9,23.7
2023/09/21 07:20:00,14.5,23.5
2023/09/21 07:30:00,17.1,23.8
2023/09/21 07:40:00,38.8,23.7
2023/09/21 07:50:00,25.4,23.7
2023/09/21 08:00:00,---,23.5
2023/09/21 08:10:00,26.8,23.7
2023/09/21 08:20:00,20.2,23.2
2023/09/21 08:30:00,23.4,23.6
2023/09/21 08:40:00,23.7,23.2
2023/09/21 08:50:00,23.8,23.1
2023/09/21 09:00:00,24.0,23.4
2023/09/21 09:10:00,23.7,23.4
2023/09/21 09:20:00,23.7,22.5
2023/09/21 09:30:00,23.7,22.2
2023/09/21 09:40:00,23.9,21.9
2023/09/21 09:50:00,23.7,22.1
2023/09/21 10:00:00,23.5,22.0
2023/09/21 10:10:00,23.8,21.7
2023/09/21 10:20:00,23.5,22.3
2023/09/21 10:30:00,23.5,21.8
2023/09/21 10:40:00,23.0,21.5
2023/09/21 10:50:00,22.6,21.4
2023/09/21 11:00:00,23.4,21.5
2023/09/21 11:10:00,23.3,21.5
2023/09/21 11:20:00,22.3,21.5
2023/09/21 11:30:00,23.3,21.7
2023/09/21 11:40:00,23.3,21.8
2023/09/21 11:50:00,23.5,22.5
2023/09/21 12:00:00,24.1,22.6
2023/09/21 12:10:00,---,23.2
2023/09/21 12:20:00,---,23.3
2023/09/21 12:30:00,24.9,24.1
2023/09/21 12:40:00,25.2,23.8
2023/09/21 12:50:00,---,24.3
2023/09/21 13:00:00,24.2,23.5
2023/09/21 13:10:00,24.7,23.0
2023/09/21 13:20:00,24.8,23.2
2023/09/21 13:30:00,24.8,22.7
2023/09/21 13:40:00,24.7,22.7
2023/09/21 13:50:00,24.3,23.3
2023/09/21 14:00:00,24.3,22.7
2023/09/21 14:10:00,24.3,22.6
2023/09/21 14:20:00,24.4,22.6
2023/09/21 14:30:00,24.2,21.9
2023/09/21 14:40:00,24.2,21.7
2023/09/21 14:50:00,24.2,22.1
2023/09/21 15:00:00,24.4,21.9
2023/09/21 15:10:00,24.3,22.4
2023/09/21 15:20:00,24.2,21.7
2023/09/21 15:30:00,24.5,22.3
2023/09/21 15:40:00,24.5,22.3
2023/09/21 15:50:00,24.5,21.6
2023/09/21 16:00:00,24.6,21.7
2023/09/21 16:10:00,24.3,21.7
2023/09/21 16:20:00,24.5,21.8
2023/09/21 16:30:00,24.4,21.4
2023/09/21 16:40:00,24.2,20.9
2023/09/21 16:50:00,24.1,21.0
2023/09/21 17:00:00,24.2,20.8
2023/09/21 17:10:00,24.3,20.5
2023/09/21 17:20:00,24.0,20.4
2023/09/21 17:30:00,24.1,20.5
2023/09/21 17:40:00,23.7,20.2
2023/09/21 17:50:00,24.0,19.9
2023/09/21 18:00:00,24.0,20.2
2023/09/21 18:10:00,24.1,20.2
2023/09/21 18:20:00,24.2,19.8
2023/09/21 18:30:00,24.3,19.8
2023/09/21 18:40:00,24.1,19.8
2023/09/21 18:50:00,24.1,19.8
2023/09/21 19:00:00,24.2,19.6
2023/09/21 19:10:00,24.2,19.8
2023/09/21 19:20:00,24.1,19.7
2023/09/21 19:30:00,24.2,19.6
2023/09/21 19:40:00,24.2,19.8
2023/09/21 19:50:00,24.3,19.8
2023/09/21 20:00:00,24.1,19.8
2023/09/21 20:10:00,24.2,19.5
2023/09/21 20:20:00,24.1,19.8
2023/09/21 20:30:00,24.1,19.8
2023/09/21 20:40:00,24.2,19.8
2023/09/21 20:50:00,24.1,19.7
2023/09/21 21:00:00,24.2,20.0
2023/09/21 21:10:00,24.2,19.8
2023/09/21 21:20:00,23.9,19.8
2023/09/21 21:30:00,24.2,19.5
2023/09/21 21:40:00,24.3,19.5
2023/09/21 21:50:00,24.3,19.5
2023/09/21 22:00:00,24.2,19.5
2023/09/21 22:10:00,24.1,19.4
2023/09/21 22:20:00,24.8,19.7
2023/09/21 22:30:00,24.2,19.2
2023/09/21 22:40:00,24.3,19.1
2023/09/21 22:50:00,24.3,19.4
2023/09/21 23:00:00,24.1,19.5
2023/09/21 23:10:00,24.2,19.2
2023/09/21 23:20:00,24.1,19.2
2023/09/21 23:30:00,24.2,19.4
2023/09/21 23:40:00,24.0,19.5
2023/09/21 23:50:00,24.1,19.2
